This is the latest recevied weather packets stored in our database for station/object K4CRS-13. If no packets are shown the sender has not sent any weather packets the latest 10 day(s).
| Time | Temp. | Humidity | Pressure | Rain* | Wind** | Luminosity | Snow |
|---|---|---|---|---|---|---|---|
| 1787625041 | 22.22° C | 82% | 1052 hPa | 0 mm | - | 0 W/m² | - |
| 1787624736 | 22.78° C | 82% | 1052.1 hPa | 0 mm | - | 0 W/m² | - |
| 1787624436 | 22.78° C | 82% | 1051.9 hPa | 0 mm | - | 0 W/m² | - |
| 1787624132 | 22.78° C | 83% | 1051.9 hPa | 0 mm | - | 0 W/m² | - |
| 1787623832 | 22.78° C | 83% | 1051.9 hPa | 0 mm | - | 0 W/m² | - |
| 1787623531 | 22.78° C | 82% | 1051.6 hPa | 0 mm | - | 0 W/m² | - |
| 1787623227 | 22.78° C | 82% | 1051.8 hPa | 0 mm | - | 0 W/m² | - |
| 1787622926 | 22.78° C | 84% | 1051.8 hPa | 0 mm | - | 0 W/m² | - |
| 1787622623 | 23.33° C | 83% | 1051.6 hPa | 0 mm | - | 0 W/m² | - |
| 1787622319 | 23.33° C | 82% | 1051.6 hPa | 0 mm | - | 0 W/m² | - |
| 1787622014 | 23.33° C | 82% | 1051.7 hPa | 0 mm | - | 0 W/m² | - |
| 1787621713 | 23.33° C | 83% | 1051.6 hPa | 0 mm | - | 0 W/m² | - |
| 1787621409 | 23.89° C | 82% | 1051.3 hPa | 0 mm | - | 0 W/m² | - |
| 1787621105 | 23.89° C | 82% | 1051.4 hPa | 0 mm | - | 0 W/m² | - |
| 1787620800 | 24.44° C | 80% | 1051.2 hPa | 0 mm | - | 0 W/m² | - |
| 1787620495 | 24.44° C | 79% | 1051.2 hPa | 0 mm | - | 0 W/m² | - |
| 1787620191 | 25° C | 78% | 1051.2 hPa | 0 mm | - | 0 W/m² | - |
| 1787619886 | 25° C | 76% | 1051.2 hPa | 0 mm | - | 0 W/m² | - |
| 1787619581 | 25.56° C | 75% | 1051.3 hPa | 0 mm | - | 0 W/m² | - |
| 1787619277 | 25.56° C | 74% | 1051.1 hPa | 0 mm | - | 0 W/m² | - |
| 1787618970 | 26.11° C | 74% | 1050.9 hPa | 0 mm | - | 0 W/m² | - |
| 1787618666 | 26.67° C | 70% | 1050.6 hPa | 0 mm | - | 0 W/m² | - |
| 1787618363 | 26.67° C | 67% | 1050.9 hPa | 0 mm | - | 1 W/m² | - |
| 1787618054 | 27.22° C | 67% | 1051 hPa | 0 mm | - | 2 W/m² | - |
| 1787617753 | 27.22° C | 66% | 1050.6 hPa | 0 mm | - | 3 W/m² | - |
* Rain latest hour (hover to see other rain measurements)
** Current wind speed in m/s (hover to see current wind gust speed)